Regional Weather Roundup
Issued by NWS

Home | Current Version | Previous Version | Graphics & Text | Print | Product List | Glossary On
Versions: 1 2 3 4 5 6 7 8 9 10 11 12 13 14 15 16 17 18 19 20 21 22 23 24 25 26 27 28 29 30 31 32 33 34 35 36 37 38 39 40 41 42 43 44 45 46 47 48 49 50
458
ASUS45 KBOU 170707
RWRCO

WEATHER ROUNDUP FOR COLORADO
NATIONAL WEATHER SERVICE DENVER/BOULDER CO
100 AM MDT THU AUG 17 2017

NOTE: "FAIR" INDICATES FEW OR NO CLOUDS BELOW 12000 FEET WITH NO
SIGNIFICANT WEATHER AND/OR OBSTRUCTIONS TO VISIBILITY.

COZ001>005-013-030-031-170800-
...NORTHWEST COLORADO...

CITY           SKY/WX    TMP DP  RH WIND       PRES   REMARKS
CRAIG          FAIR      51  41  68 E3        30.22R
HAYDEN         FAIR      54  43  66 E10       30.26R
MEEKER         FAIR      51  38  60 E6        30.24S
RABBIT EARS PA FAIR      46  30  53 W5        30.48S
STEAMBOAT SPGS FAIR      50  39  67 NW3       30.26S
WALDEN         FAIR      39  34  81 SE8       30.35F
$$

COZ006>008-011-170800-
...WEST CENTRAL VALLEYS...

CITY           SKY/WX    TMP DP  RH WIND       PRES   REMARKS
GRAND JUNCTION FAIR      66  40  38 W5        30.11R
MONTROSE       FAIR      60  38  43 SE13      30.19F
EAGLE          FAIR      54  36  50 CALM      30.28R
RIFLE          FAIR      62  40  44 SE5       30.17R
DELTA          FAIR      63  39  41 NE7       30.16R
NUCLA          FAIR      59  30  33 SE8       30.23R
$$

COZ017>023-064>068-170800-
...SOUTHWEST COLORADO...

CITY           SKY/WX    TMP DP  RH WIND       PRES   REMARKS
DURANGO        FAIR      50  31  48 CALM      30.24S
CORTEZ         FAIR      51  35  54 NE5       30.20R
PAGOSA SPRINGS FAIR      48  29  47 CALM      30.32S
TELLURIDE      FAIR      51  31  46 SE7       30.44R
WOLF CREEK PAS FAIR      45  23  42 SW6       30.64S
$$

COZ009-010-012-014-032>034-037-058>063-170800-
...CENTRAL COLORADO...

CITY           SKY/WX    TMP DP  RH WIND       PRES   REMARKS
ASPEN          FAIR      49  37  63 SW8       30.32S
BUENA VISTA    FAIR      51  41  69 CALM      30.36R
COPPER MTN     FAIR      46  28  49 CALM      30.59S
BERTHOUD PASS  FAIR      36  32  87 NW20      30.59S
COTTONWOOD PAS FAIR      52  37  58 N5        30.46S
GUNNISON       FAIR      50  35  56 CALM      30.34R
KREMMLING      FAIR      50  43  76 CALM      30.33R
LEADVILLE      FAIR      40  32  73 E3        30.45R
MONARCH PASS   FAIR      45  27  49 NW10      30.69S
SALIDA         FAIR      59  47  63 S3        30.40R
SUNLIGHT       FAIR      48  30  49 W3        30.54S
WILKERSON PASS FAIR      41  39  93 SW7       30.57S
$$

COZ069>075-170800-
...SAN LUIS VALLEY/SANGRE DE CRISTO MOUNTAINS...

CITY           SKY/WX    TMP DP  RH WIND       PRES   REMARKS
ALAMOSA        FAIR      51  43  74 S6        30.29S
DEL NORTE      FAIR      51  38  59 W12       30.33S
LA VETA PASS   NOT AVBL
SAGUACHE       CLOUDY    59  32  36 NW12      30.31S
$$

COZ035-036-038>040-170800-
...NORTHERN COLORADO FRONT RANGE...

CITY           SKY/WX    TMP DP  RH WIND       PRES   REMARKS
DENVER INTL AP FAIR      62  45  53 SW8       30.17F
DMNS CITY PARK   N/A     60  49  68 E8        30.18S
AURORA         PTCLDY    57  47  70 S8        30.20F
FRONT RANGE AP FAIR      57  50  77 S10       30.19F
ERIE MUNI ARPT FAIR      57  53  87 CALM      30.22S
BOULDER MUN AP FAIR      59  52  77 CALM      30.17S
CENTENNIAL     FAIR      58  49  72 S10       30.21S
BROOMFIELD     NOT AVBL
FORT COLLINS   FAIR      58  51  78 S5        30.16S
LONGMONT       FAIR      57  49  75 CALM      30.17F
$$

COZ041-046-047-076>085-087-088-170800-
...PIKES PEAK/PALMER DIVIDE AND SOUTHERN FOOTHILLS...

CITY           SKY/WX    TMP DP  RH WIND       PRES   REMARKS
COLO. SPRINGS  MOCLDY    59  51  75 N5        30.26F
A. F. ACADEMY  FAIR      51  50  96 N7        30.27S
SCHRIEVER AFB  FAIR      59  46  63 NW7       30.26F
CHEYENNE MTN   FAIR      61  44  52 SW7       30.25S
ELLICOTT       FAIR     N/A N/A N/A NE3       30.24F
FALCON         FAIR      55  46  72 SW6       30.30S
FORT CARSON    CLOUDY    57  51  80 NW7       30.23S
LIMON          FAIR      50  49  96 N3        30.20R
MONUMENT HILL  FAIR      48  45  87 SW6       30.31R
CANON CITY     CLEAR     64  55  72 CALM      30.22R
WALSENBURG     FAIR      61  52  72 CALM      30.26R
TRINIDAD       FAIR      57  51  80 W8        30.24R
$$

COZ042>045-048>051-090-091-170800-
...NORTHEAST COLORADO...

CITY           SKY/WX    TMP DP  RH WIND       PRES   REMARKS
GREELEY ARPT   FAIR      57  53  86 SW6       30.14F
AKRON          FAIR      57  51  80 S7        30.14S
BURLINGTON     FAIR      54  52  93 SW5       30.13S
WRAY           NOT AVBL
YUMA           FAIR      52  50  93 SW6       30.11S
STERLING       FAIR      54  52  94 SW5       30.09S
HOLYOKE        FAIR      54  50  87 W6        30.09S
FORT MORGAN    FAIR      56  49  78 CALM      30.14S
$$

COZ086-089-092>099-170800-
...SOUTHEAST COLORADO...

CITY           SKY/WX    TMP DP  RH WIND       PRES   REMARKS
PUEBLO         FAIR      63  53  70 W3        30.17R
LA JUNTA       MOCLDY    64  52  64 S3        30.15R
LAMAR          MOCLDY    57  54  89 CALM      30.10S
SPRINGFIELD      N/A     59  53  80 E3        30.16R
$$




USA.gov is the U.S. government's official web portal to all federal, state and local government web resources and services.